Regional Weather Roundup
Issued by NWS Wakefield, VA

Home | Current Version | Previous Version | Graphics & Text | Print | Product List | Glossary On
Versions: 1 2 3 4 5 6 7 8 9 10 11 12 13 14 15 16 17 18 19 20 21 22 23 24 25 26 27 28 29 30 31 32 33 34 35 36 37 38 39 40 41 42 43 44 45 46 47 48 49 50
285
ASUS41 KAKQ 251915
RWRAKQ

REGIONAL WEATHER ROUNDUP
NATIONAL WEATHER SERVICE WAKEFIELD VA
300 PM EDT MON JUL 25 2016

Note: "fair" indicates few or no clouds below 12,000 feet with no
significant weather and/or obstructions to visibility. * = Denotes
station may not report precipitation (e.g., rain,snow,etc.),
thunder or fog.

VAZ042-051-052>054-056-252000-
NORTHERN VIRGINIA

CITY           SKY/WX    TMP DP  RH WIND       PRES   REMARKS
WASH NATIONAL  PTSUNNY   98  76  49 S13G20    29.88F HX 112
DULLES         PTSUNNY   99  68  36 S9        29.89F HX 104
FORT BELVOIR   FAIR      99  74  44 S8        29.89F HX 110
QUANTICO       PTSUNNY   98  73  44 S10       29.90F HX 108
FREDERICKSBRG*   N/A     99  70  39 SW12G18   29.90F HX 105
STAFFORD*      FAIR      98  67  36 SW9       29.95F HX 102
WARRENTON      FAIR      99  64  32 S7        29.90F HX 101
CULPEPER*      FAIR      97  74  48 SW7       29.91F HX 109
MANASSAS*      SUNNY     99  73  44 SW8       29.90F HX 109
LEESBURG*      FAIR     100  73  41 S12       29.90F HX 111
WINCHESTER     PTSUNNY   95  70  43 S5        29.91F HX 101
FRONT ROYAL*   FAIR      97  70  41 S8        29.91F HX 103
LURAY*         FAIR      95  70  43 SW8       29.93F HX 101
$$

VAZ048-049-060>072-079>083-252000-
CENTRAL AND SOUTH CENTRAL VIRGINIA

CITY           SKY/WX    TMP DP  RH WIND       PRES   REMARKS
RICHMOND       PTSUNNY   95  70  44 SW15      29.93F HX 101
CHESTERFIELD*  FAIR      97  68  38 SW8       29.95F HX 101
PETERSBURG*    FAIR      96  73  47 SW8       29.95F HX 106
HANOVER        FAIR      98  69  38 SW14G21   29.94F HX 104
TAPPAHANNOCK*  FAIR      98  66  35 S13       29.93F HX 102
QUINTON*       FAIR      94  75  53 SW5       29.93F HX 105
CHARLOTTSVILLE FAIR      97  72  44 S8        29.93F HX 105
GORDONSVILLE*  FAIR      94  72  48 S9        29.92F HX 102
ORANGE*          N/A     99  68  36 S9        29.94F HX 104
LOUISA*        FAIR      97  75  49 SW6       29.93F HX 109
BUMPASS*       FAIR      93  74  52 SW5       29.94F HX 103
FARMVILLE*     NOT AVBL
CREWE*         FAIR      97  71  43 SW9       29.95F HX 105
FORT PICKETT*  FAIR      95  73  48 S13G28    29.97F HX 104
CHASE CITY*    FAIR      94  72  47 SW6       29.97F HX 102
CLARKSVILLE*   FAIR      95  75  52 S10       29.97F HX 107
SOUTH HILL*    FAIR      95  74  51 SW8       30.03F HX 105
LAWRENCEVILLE* MOCLDY    96  75  50 MISG      29.97F HX 108
EMPORIA*       FAIR      97  72  44 S8G16     29.97F HX 105
$$

VAZ088>098-252000-
SOUTHEAST VIRGINIA

CITY           SKY/WX    TMP DP  RH WIND       PRES   REMARKS
NORFOLK        FAIR      99  69  37 SW12      29.94F HX 105
VIRGINIA BEACH PTSUNNY  100  72  40 SW9G21    29.94F HX 109
NORFOLK NAVAL  PTSUNNY   98  72  42 SW10      29.96F HX 107
WEST POINT*    FAIR      94  73  49 SW10      29.94F HX 103
SALUDA*        FAIR      95  78  56 SW8       29.93F HX 110
NEWPORT NEWS   FAIR      94  75  54 SW15      29.95F HX 105
LANGLEY AFB    MOSUNNY   93  75  56 SW15      29.94F HX 104
FORT EUSTIS    FAIR      96  77  54 SW9       29.93F HX 109
WILLIAMSBURG*  FAIR      99  75  47 SW8       29.95F HX 111
HR EXEC AP*    FAIR      97  77  52 SW13      29.97F HX 112
FRANKLIN*      FAIR      94  73  50 SW10      29.96F HX 103
US460-WAKEFLD  FAIR      94  73  50 S8        29.95F HX 103
$$

VAZ020-022-025-037-045-252000-
WEST CENTRAL AND SOUTHWEST VIRGINIA

CITY           SKY/WX    TMP DP  RH WIND       PRES   REMARKS
STAUNTON*      FAIR      92  73  52 S12       29.98F HX 100
WAYNESBORO*    FAIR      92  67  43 SW7       30.00F HX  96
HOT SPRINGS VA NOT AVBL
LYNCHBURG      FAIR      93  70  46 W7        30.00F HX  99
DANVILLE       FAIR      95  71  45 SW8       29.98F HX 102
SOUTH BOSTON*  FAIR      96  71  44 W7        29.97F HX 102
MARTINSVILLE   FAIR      96  66  38 CALM      30.02F HX  99
ROANOKE        FAIR      93  70  46 N8        30.02F HX  99
BLACKSBURG     FAIR      89  73  60 W5        30.11F HX  96
DUBLIN*        PTSUNNY   89  71  55 CALM      30.10F HX  95
MARION*        FAIR      89  69  51 W8        30.13F
HILLSVILLE*    FAIR      85  71  62 NW9       30.13S
RICHLANDS*     FAIR      87  73  63 NW6       30.13F HX  95
WISE*          PTSUNNY   86  61  42 CALM      30.15F
ABINGDON*      FAIR      92  63  38 NW6       30.09F
$$

MDZ021>025-VAZ099-100-252000-
SOUTHERN MARYLAND AND THE DELMARVA PENINSULA

CITY           SKY/WX    TMP DP  RH WIND       PRES   REMARKS
PATUXENT RIVER MOSUNNY  101  64  29 SW13      29.90F HX 104
BAY BRIDGE APT SUNNY     95  79  59 S8        29.88F HX 112
LEONARDTOWN    SUNNY     97  64  34 W12       29.92F HX  99
DOVER          MOSUNNY   97  78  54 S13       29.87F HX 113
GEORGETOWN     MOSUNNY   97  76  50 W8G18     29.90F HX 110
EASTON         MOSUNNY   95  81  63 SW9       29.94F HX 115
CAMBRIDGE      SUNNY     95  73  49 SW7       29.89F HX 105
SALISBURY      SUNNY     94  75  54 SW14      29.91F HX 105
OCEAN CITY     SUNNY     98  75  47 SW7       29.91F HX 110
WALLOPS ISLAND PTSUNNY   95  72  47 SW12      29.93F HX 103
ACCOMACK*      FAIR      93  75  55 SW14      29.94F HX 104
$$

NCZ012>017-030>032-252000-
NORTH CENTRAL AND EASTERN NORTH CAROLINA

CITY           SKY/WX    TMP DP  RH WIND       PRES   REMARKS
ROANOKE RAPIDS FAIR      91  75  59 S5        29.98F HX 102
RALEIGH        PTSUNNY   93  74  53 SW7       29.99F HX 103
ELIZABETH CITY SUNNY     93  76  57 S9        29.98F HX 105
AHOSKIE*       SUNNY     92  76  58 S3        29.98F HX 103
EDENTON*       SUNNY     95  71  45 SW9       29.99F HX 101
CURRITUCK*     SUNNY     94  75  53 SW8       29.98F HX 105
KILL DEVIL HLS SUNNY     99  73  43 S6        29.98F HX 109
MANTEO           N/A     89  80  74 S15G22    29.99F HX 106
CAPE HATTERAS  MOSUNNY   87  77  72 SW10      30.03F HX  99
TARBORO*       FAIR      94  77  57 S6        29.99F HX 108
GOLDSBORO      MOSUNNY   96  74  49 W9        29.99F HX 107
WASHINGTON     MOSUNNY   92  75  56 SW9       29.99F HX 103
GREENVILLE     PTSUNNY   91  77  62 SW7       30.01F HX 105
NEW BERN       MOSUNNY   93  77  59 S9        30.02F HX 107
WILMINGTON     PTSUNNY   90  76  63 S12G21    30.03F HX 101
$$

VAZ048-252000-
ELSEWHERE

CITY           SKY/WX    TMP DP  RH WIND       PRES   REMARKS
HARRISBURG PA  CLOUDY    87  73  62 N17G31    29.86F THUNDER
BALTIMORE      MOSUNNY   98  71  41 S9        29.87F HX 106
ANNAPOLIS      SUNNY     95  80  61 S12       29.87F HX 114
ANDREWS AFB    FAIR      97  70  41 SW10      29.89F HX 103
PHILADELPHIA   PTSUNNY   95  75  52 SW8       29.87F HX 107
GREENSBORO     CLOUDY    95  67  39 SW7       30.00F HX  99
ROCKY MOUNT    SUNNY     94  77  57 S12       29.99F HX 108
$$

VAZ100-252000-
MARINE

STATION/POSITION TIME  TEMP    WIND        PRES    WAVE   SWELL
                       AIR SEA DIR/SP/G            HT/PER HT/PER
                 (UTC) (F)     (DEG/KT/KT) (MB)    (FT/S) (FT/S)
BRANDYWINE LGT   1800   79     160/ 14/ 15   N/A
CAPE MAY NJ      1800   86 73  140/  5/  7 1012.8F
LEWES DE         1800   88 78  160/  6/  8 1013.0F
OCEAN-CITY-INLET 1800   78 72  200/ 13/ 16 1013.9F
WACHAPREAGUE VA  1800   94 85  230/  8/ 14 1014.3F
THOMAS POINT MD  1900   88 84  160/ 11/ 12 1013.2F
GOOSES REEF MD   1900   92 87  210/  4/  6 1013.4F   1
COVE POINT MD    1800   94     260/  7/ 14 1013.6F
SOLOMONS ISLAND  1800   93 84  230/  9/ 13   N/A
BISHOPS HEAD MD  1800   91     200/  8/  9 1013.9F
PINEY POINT MD   1800          270/  8/ 12   N/A
POTOMAC MD       1900   93 87  250/  8/ 12 1011.6F   1/ 2
CAMBRIDGE MD     1800   93 86  240/  6/  9 1012.4F
LEWISETTA VA     1800   95 88  270/ 11/ 16 1013.1F
RAPPAHANNOCK LGT 1800          180/ 11/ 13 1015.0F
STINGRAY PT      1900   91 86  160/ 10/ 12 1013.8F   1/ 2
YORK RVR RNG VA  1800   91     240/ 12/ 13 1014.0F
YORKTOWN VA      1800   91 84  240/  8/ 10 1014.1F
JAMESTOWN VA     1900   93 89  230/ 10/ 14   N/A
DOMINION TERM VA 1800   89     220/ 10/ 12 1014.9F
KIPTOPEKE VA     1800      84  210/  8/ 10   N/A
CHES BAY BRIDGE  1800   90 75  230/  8/  9 1014.6F
CAPE HENRY VA    1800   94     200/  7/ 11   N/A
WILLOUBY STN VA  1800   89     250/ 11/ 11   N/A
CAPE HENRY BUOY  1812      77                N/A     2/ 9
1ST LANDING BUOY 1900   89 81  210/  6/ 10 1013.5F
CAPE CHARLES BUO 1826      76                N/A     2/ 9
OFFSHORE WE BUOY 1821      82                N/A     2/ 8
64NM E OF VA BCH 1850   83 82  210/ 12/ 16 1015.1F   3/ 5   2/ 9
DUCK PIER NC     1800   89 65  200/  9/ 13 1015.3F
44100 DUCK FRF   1805      79                N/A     2/ 8
44056 DUCK FRF   1811      75                N/A     1/ 8
HATTERAS NC      1800   87 83  200/  9/ 14 1017.0F
DIAMOND SHLS NC  1750   84 86  220/ 12/ 14 1017.7    2/ 5   2/ 8
CAPE LOOKOUT NC  1800   87     200/ 10/ 13 1017.6F
$$




USA.gov is the U.S. government's official web portal to all federal, state and local government web resources and services.